When you browse on this site, cookies collect data to enhance your experience and personalize the content and advertising you see.
Visit our Privacy Policy to learn more. By continuing to use the site, you agree to this use of cookies and data.
  • In Schweiz
  • Länderverzeichnis
  • Für 7 Tage
  • Wassertemperatur
  • Satellitenkarten
  • Wetterkarte
  • Widgets
  • user-avatar
    Anmelden

    Stündliche Wetter Wien

    Heute, 25 April, Donnerstag

    Zeit Temperatur Niederschläge Wind Luftdruck Luftfeuchtigkeit
    00:00 +15°C° 0 mm 5 m/S 740 mmHg 65%
    01:00 +14°C° 0 mm 3 m/S 740 mmHg 68%
    02:00 +14°C° 0 mm 2 m/S 740 mmHg 72%
    03:00 +14°C° 0 mm 2 m/S 740 mmHg 75%
    04:00 +13°C° 0 mm 1 m/S 741 mmHg 78%
    05:00 +14°C° 0 mm 1 m/S 741 mmHg 75%
    06:00 +15°C° 0 mm 1 m/S 741 mmHg 72%
    07:00 +16°C° 0 mm 0 m/S 741 mmHg 67%
    08:00 +20°C° 0 mm 1 m/S 741 mmHg 62%
    09:00 +22°C° 0 mm 1 m/S 742 mmHg 56%
    10:00 +23°C° 0 mm 2 m/S 742 mmHg 51%
    11:00 +24°C° 0 mm 2 m/S 741 mmHg 48%
    12:00 +25°C° 0 mm 3 m/S 741 mmHg 44%
    13:00 +27°C° 0 mm 4 m/S 741 mmHg 41%
    14:00 +27°C° 0 mm 4 m/S 741 mmHg 40%
    15:00 +27°C° 0 mm 5 m/S 740 mmHg 40%
    16:00 +27°C° 0 mm 5 m/S 740 mmHg 39%
    17:00 +25°C° 0 mm 5 m/S 740 mmHg 42%
    18:00 +23°C° 0 mm 5 m/S 740 mmHg 45%
    19:00 +21°C° 0 mm 5 m/S 739 mmHg 48%
    20:00 +20°C° 0 mm 4 m/S 740 mmHg 48%
    21:00 +19°C° 0 mm 4 m/S 740 mmHg 49%
    22:00 +18°C° 0 mm 3 m/S 740 mmHg 50%
    23:00 +18°C° 0 mm 3 m/S 740 mmHg 51%

    Morgen, 26 April, Freitag

    Zeit Temperatur Niederschläge Wind Luftdruck Luftfeuchtigkeit
    00:00 +17°C° 0 mm 2 m/S 739 mmHg 53%
    01:00 +16°C° 0 mm 2 m/S 739 mmHg 54%
    02:00 +16°C° 0 mm 2 m/S 739 mmHg 56%
    03:00 +16°C° 0 mm 1 m/S 739 mmHg 58%
    04:00 +15°C° 0 mm 1 m/S 739 mmHg 60%
    05:00 +16°C° 0 mm 1 m/S 739 mmHg 60%
    06:00 +18°C° 0 mm 1 m/S 739 mmHg 59%
    07:00 +19°C° 0 mm 1 m/S 739 mmHg 59%
    08:00 +20°C° 0 mm 2 m/S 739 mmHg 52%
    09:00 +24°C° 0 mm 2 m/S 739 mmHg 46%
    10:00 +26°C° 0 mm 3 m/S 738 mmHg 39%
    11:00 +27°C° 0 mm 4 m/S 738 mmHg 37%
    12:00 +28°C° 0 mm 5 m/S 738 mmHg 34%
    13:00 +29°C° 0 mm 6 m/S 737 mmHg 32%
    14:00 +28°C° 0 mm 6 m/S 737 mmHg 35%
    15:00 +27°C° 0 mm 6 m/S 737 mmHg 39%
    16:00 +26°C° 0 mm 5 m/S 737 mmHg 42%
    17:00 +22°C° 0 mm 6 m/S 737 mmHg 49%
    18:00 +17°C° 0 mm 8 m/S 738 mmHg 56%
    19:00 +12°C° 0 mm 9 m/S 739 mmHg 64%
    20:00 +12°C° 0 mm 9 m/S 739 mmHg 63%
    21:00 +11°C° 0 mm 9 m/S 740 mmHg 63%
    22:00 +10°C° 0 mm 9 m/S 741 mmHg 63%
    23:00 +10°C° 0 mm 8 m/S 741 mmHg 63%

    übermorgen, 27 April, Samstag

    Zeit Temperatur Niederschläge Wind Luftdruck Luftfeuchtigkeit
    00:00 +10°C° 0 mm 8 m/S 742 mmHg 63%
    01:00 +10°C° 0 mm 8 m/S 742 mmHg 63%
    02:00 +10°C° 0 mm 8 m/S 742 mmHg 64%
    03:00 +10°C° 0 mm 8 m/S 742 mmHg 64%
    04:00 +10°C° 0 mm 7 m/S 742 mmHg 65%
    05:00 +10°C° 0 mm 7 m/S 742 mmHg 65%
    06:00 +10°C° 0 mm 7 m/S 742 mmHg 66%
    07:00 +10°C° 0 mm 7 m/S 743 mmHg 66%
    08:00 +11°C° 0.1 mm 7 m/S 743 mmHg 65%
    09:00 +11°C° 0.1 mm 7 m/S 743 mmHg 63%
    10:00 +13°C° 0.1 mm 6 m/S 743 mmHg 62%
    11:00 +13°C° 0.1 mm 6 m/S 743 mmHg 60%
    12:00 +14°C° 0.1 mm 5 m/S 742 mmHg 59%
    13:00 +14°C° 0.1 mm 4 m/S 742 mmHg 57%
    14:00 +15°C° 0.1 mm 4 m/S 742 mmHg 56%
    15:00 +15°C° 0.1 mm 4 m/S 741 mmHg 54%
    16:00 +17°C° 0.1 mm 4 m/S 741 mmHg 52%
    17:00 +15°C° 0 mm 4 m/S 741 mmHg 54%
    18:00 +14°C° 0 mm 3 m/S 741 mmHg 55%
    19:00 +13°C° 0 mm 3 m/S 742 mmHg 57%
    20:00 +13°C° 0 mm 4 m/S 742 mmHg 60%
    21:00 +12°C° 0 mm 5 m/S 742 mmHg 63%
    22:00 +10°C° 0 mm 5 m/S 743 mmHg 66%
    23:00 +10°C° 0 mm 5 m/S 743 mmHg 69%

    28 April, Sonntag

    Zeit Temperatur Niederschläge Wind Luftdruck Luftfeuchtigkeit
    00:00 +9°C° 0 mm 5 m/S 743 mmHg 73%
    01:00 +9°C° 0 mm 5 m/S 743 mmHg 77%
    02:00 +8°C° 0 mm 5 m/S 743 mmHg 76%
    03:00 +8°C° 0 mm 5 m/S 743 mmHg 76%
    04:00 +8°C° 0 mm 6 m/S 744 mmHg 75%
    05:00 +8°C° 0 mm 6 m/S 744 mmHg 72%
    06:00 +8°C° 0 mm 6 m/S 744 mmHg 68%
    07:00 +8°C° 0 mm 7 m/S 744 mmHg 65%
    08:00 +10°C° 0 mm 6 m/S 744 mmHg 60%
    09:00 +11°C° 0 mm 6 m/S 744 mmHg 54%
    10:00 +13°C° 0 mm 6 m/S 744 mmHg 49%
    11:00 +14°C° 0 mm 6 m/S 744 mmHg 47%
    12:00 +15°C° 0 mm 5 m/S 743 mmHg 45%
    13:00 +16°C° 0 mm 5 m/S 743 mmHg 43%
    14:00 +16°C° 0 mm 5 m/S 743 mmHg 44%
    15:00 +16°C° 0 mm 5 m/S 742 mmHg 44%
    16:00 +16°C° 0 mm 5 m/S 742 mmHg 45%
    17:00 +15°C° 0 mm 4 m/S 742 mmHg 50%
    18:00 +13°C° 0 mm 3 m/S 742 mmHg 55%
    19:00 +12°C° 0 mm 3 m/S 742 mmHg 61%
    20:00 +11°C° 0 mm 3 m/S 743 mmHg 64%
    21:00 +10°C° 0 mm 3 m/S 743 mmHg 67%
    22:00 +9°C° 0 mm 3 m/S 743 mmHg 70%
    23:00 +9°C° 0 mm 3 m/S 743 mmHg 69%

    29 April, Montag

    Zeit Temperatur Niederschläge Wind Luftdruck Luftfeuchtigkeit
    00:00 +9°C° 0 mm 3 m/S 743 mmHg 69%
    01:00 +9°C° 0 mm 3 m/S 743 mmHg 68%
    02:00 +8°C° 0 mm 4 m/S 743 mmHg 69%
    03:00 +8°C° 0 mm 4 m/S 743 mmHg 70%
    04:00 +8°C° 0 mm 4 m/S 743 mmHg 71%
    05:00 +8°C° 0 mm 4 m/S 743 mmHg 70%
    06:00 +9°C° 0 mm 5 m/S 743 mmHg 68%
    07:00 +9°C° 0 mm 5 m/S 743 mmHg 67%
    08:00 +10°C° 0 mm 5 m/S 743 mmHg 64%
    09:00 +13°C° 0 mm 5 m/S 743 mmHg 61%
    10:00 +14°C° 0 mm 5 m/S 742 mmHg 57%
    11:00 +14°C° 0.2 mm 5 m/S 742 mmHg 57%
    12:00 +15°C° 0.2 mm 6 m/S 742 mmHg 57%
    13:00 +15°C° 0.2 mm 6 m/S 741 mmHg 57%
    14:00 +15°C° 0.1 mm 6 m/S 741 mmHg 57%
    15:00 +15°C° 0.1 mm 6 m/S 741 mmHg 57%
    16:00 +15°C° 0.1 mm 6 m/S 740 mmHg 57%
    17:00 +14°C° 0.1 mm 6 m/S 740 mmHg 62%
    18:00 +13°C° 0.1 mm 5 m/S 740 mmHg 66%
    19:00 +12°C° 0.1 mm 5 m/S 741 mmHg 71%
    20:00 +10°C° 0.1 mm 5 m/S 741 mmHg 74%
    21:00 +10°C° 0.1 mm 5 m/S 741 mmHg 77%
    22:00 +9°C° 0.1 mm 5 m/S 741 mmHg 80%
    23:00 +9°C° 0.9 mm 5 m/S 740 mmHg 83%

    30 April, Dienstag

    Zeit Temperatur Niederschläge Wind Luftdruck Luftfeuchtigkeit
    00:00 +9°C° 0.9 mm 5 m/S 740 mmHg 86%
    01:00 +8°C° 0.9 mm 5 m/S 740 mmHg 89%
    02:00 +8°C° 1 mm 5 m/S 740 mmHg 89%
    03:00 +8°C° 1 mm 5 m/S 740 mmHg 89%
    04:00 +9°C° 1 mm 5 m/S 740 mmHg 90%
    05:00 +9°C° 0.4 mm 5 m/S 740 mmHg 89%
    06:00 +9°C° 0.4 mm 5 m/S 740 mmHg 88%
    07:00 +9°C° 0.4 mm 5 m/S 740 mmHg 88%
    08:00 +9°C° 0.5 mm 5 m/S 740 mmHg 85%
    09:00 +10°C° 0.5 mm 5 m/S 740 mmHg 83%
    10:00 +10°C° 0.5 mm 5 m/S 740 mmHg 81%
    11:00 +12°C° 0.2 mm 5 m/S 740 mmHg 76%
    12:00 +13°C° 0.2 mm 5 m/S 740 mmHg 71%
    13:00 +14°C° 0.2 mm 5 m/S 740 mmHg 66%
    14:00 +14°C° 0.1 mm 5 m/S 740 mmHg 62%
    15:00 +15°C° 0.1 mm 5 m/S 740 mmHg 58%
    16:00 +15°C° 0.1 mm 5 m/S 740 mmHg 54%
    17:00 +14°C° 0 mm 4 m/S 741 mmHg 57%
    18:00 +13°C° 0 mm 4 m/S 741 mmHg 60%
    19:00 +12°C° 0 mm 3 m/S 741 mmHg 63%
    20:00 +11°C° 0 mm 3 m/S 741 mmHg 63%
    21:00 +10°C° 0 mm 3 m/S 742 mmHg 63%
    22:00 +9°C° 0 mm 3 m/S 742 mmHg 64%
    23:00 +8°C° 0 mm 3 m/S 742 mmHg 67%
    Mehr zeigen